Location: Pebble Beach Sunset Acres
(33.0837°N, 96.4508°W)
Time: 01:32:28
(UTC+00:00)

Sich 1 - Pass Details

Date: 01 July 2022
Orbit: 593 x 622 km, 82.5° (Epoch: 16 August)

Event Time Altitude Azimuth Distance (km) Brightness Sun altitude
Exits shadow 09:56:40 11° 175° (S) 1,907 5.2 -15.3°
Maximum altitude 10:00:49 64° 94° (E) 672 3.4 -14.6°
Drops below altitude 10° 10:05:05 10° 13° (NNE) 1,947 6.4 -13.9°
Sets 10:07:18 0° 11° (N) 2,850 7.3 -13.6°
